Flag for Japan Weather past 2 weeks in Fukushima, Japan

Now
74 °F

Mild.


Feels Like: 77 °F
Forecast: 51 / 76 °F
Wind: 5 mph from Northeast

Location: Wakamatsu

Current Time: Sep 23, 2014 at 2:15:47 PM

Latest Report: Sep 23, 2014 at 1:00 PM


Visibility: 13 mi

Pressure: 30.12 "Hg

Humidity: 36%

Dew point: 46 °F

Location of FukushimaLocation

Historic Weather in Fukushima — Graph

°F

Fukushima temperature yesterday

Maximum temperature yesterday: 75 °F (at 1:00 PM)
Minimum temperature yesterday: 57 °F (at 5:00 AM)
Average temperature yesterday: 64 °F

Past Weeks' High & Low Weather Summary

 TemperatureHumidityPressure
High83 °F (Sep 9, 3:00 PM)98% (Sep 13, 5:00 AM)30.24 "Hg (Sep 13, 5:00 AM)
Low50 °F (Sep 21, 6:00 AM)29% (Sep 22, 1:00 PM)29.64 "Hg (Sep 9, 3:00 PM)
Average65 °F75%29.93 "Hg
* Reported Sep 8 1:00 PM — Sep 23 1:00 PM, Fukushima, Weather by CustomWeather, © 2014

Note: Actual official high and low records may vary slightly from our data, if they occured in-between our weather recording intervals... More about our weather records

Advertising

Fukushima weather history for previous 24 hours

 ConditionsComfort  
Time TempWeatherWind HumidityBarometerVisibility
1:00 PM
Sep 23
74 °FMild.5 mph36%30.12 "Hg12 mi
12:00 PM72 °FMild.6 mph46%30.16 "Hg12 mi
11:00 AM69 °FMild.5 mph55%30.18 "Hg12 mi
10:00 AM67 °FMild.3 mph61%30.21 "Hg12 mi
9:00 AM64 °FMild.2 mph68%30.22 "Hg12 mi
8:00 AM59 °FCool.3 mph75%30.23 "Hg12 mi
7:00 AM55 °FCool.2 mph83%30.23 "Hg12 mi
6:00 AM52 °FCool.3 mph93%30.24 "Hg12 mi
5:00 AM53 °FCool.2 mph90%30.24 "Hg12 mi
4:00 AM51 °FCool.2 mph93%30.19 "Hg12 mi
3:00 AM53 °FCool.2 mph90%30.18 "Hg12 mi
2:00 AM53 °FCool.2 mph90%30.21 "Hg12 mi
1:00 AM55 °FCool.5 mph86%30.17 "Hg12 mi
12:00 AM56 °FCool.3 mph84%30.16 "Hg12 mi
11:00 PM
Sep 22
58 °FCool.2 mph81%30.16 "Hg12 mi
10:00 PM58 °FCool.3 mph80%30.16 "Hg12 mi
9:00 PM59 °FCool.2 mph80%30.16 "Hg12 mi
8:00 PM61 °FCool.3 mph70%30.15 "Hg12 mi
7:00 PM64 °FMild.3 mph62%30.11 "Hg12 mi
6:00 PM65 °FMild.5 mph60%30.09 "Hg12 mi
5:00 PM68 °FMild.9 mph54%30.07 "Hg12 mi
4:00 PM72 °FMild.12 mph49%30.05 "Hg12 mi
3:00 PM74 °FMild.13 mph40%30.03 "Hg12 mi
2:00 PM74 °FMild.14 mph36%30.02 "Hg12 mi
Weather by CustomWeather, © 2014

See weather overviewHow to use our weather pages